Tanana, AK

2:34 PM AKST on February 24, 2017 (GMT -0900)
Calhoun Memorial

Weather History for PATA - May, 2012

Change the Weather History Date:

Monday, May 7, 2012

  Actual Average Record
Temperature  
Mean Temperature 40 °F -  
Max Temperature 46 °F 53 °F 69 °F (2005)
Min Temperature 35 °F 31 °F 12 °F (1964)
Degree Days  
Heating Degree Days 24    
Moisture  
Dew Point 28 °F    
Average Humidity 62    
Maximum Humidity 89    
Minimum Humidity 51    
Precipitation  
Precipitation 0.00 in - - ()
Sea Level Pressure  
Sea Level Pressure 29.76 in    
Wind  
Wind Speed 6 mph (East)    
Max Wind Speed 15 mph    
Max Gust Speed 17 mph    
Visibility 10 miles    
Events Rain , Snow    
Averages and records for this station are not official NWS values.
T = Trace of Precipitation, MM = Missing Value Source: NWS Daily Summary

Daily Weather History Graph

Daily Weather History Graph

Search for Another Location

Airport or City:

Trip Planner

Search our weather history database for the weather conditions in past years. The results will help you decide how hot, cold, wet, or windy it might be!

Date:

Astronomy

May. 07, 2012 Rise Set
Actual Time 5:08 AM AKDT 11:04 PM AKDT
Civil Twilight 3:36 AM AKDT 12:39 AM AKDT
Nautical Twilight Sun does not rise Sun does not rise
Astronomical Twilight Sun does not rise Sun does not rise
Moon 1:06 AM AKDT (5/7) 5:33 AM AKDT (5/7)
Length of Visible Light 21h 02m
Length of Day
17h 56m
Waning Gibbous, 96% of the Moon is Illuminated
May 7
Waning Gibbous
May 12
Last Quarter
May 20
New
May 28
First Quarter
Jun 4
Full

Hourly Weather History & Observations

Time (AKDT) Temp. Windchill Dew Point Humidity Pressure Visibility Wind Dir Wind Speed Gust Speed Precip Events Conditions
12:52 AM 43.0 °F - 27.0 °F 53% 29.69 in 10.0 mi Calm Calm - N/A   Overcast
1:52 AM 42.1 °F - 26.1 °F 53% 29.70 in 10.0 mi Calm Calm - N/A   Overcast
2:52 AM 42.1 °F - 26.1 °F 53% 29.70 in 10.0 mi Calm Calm - N/A   Overcast
3:52 AM 39.9 °F 35.8 °F 26.1 °F 58% 29.72 in 10.0 mi ESE 5.8 mph - N/A   Overcast
4:52 AM 37.9 °F 31.5 °F 26.1 °F 62% 29.73 in 10.0 mi ESE 9.2 mph - N/A   Overcast
5:52 AM 37.9 °F 31.5 °F 25.0 °F 60% 29.75 in 9.0 mi East 9.2 mph - N/A Snow Light Snow
6:29 AM 35.6 °F 29.2 °F 30.2 °F 81% 29.75 in 10.0 mi East 8.1 mph - N/A Rain , Snow Light Snow
6:52 AM 36.0 °F 33.3 °F 33.1 °F 89% 29.77 in 10.0 mi East 3.5 mph - N/A Rain , Snow Light Snow
7:52 AM 35.1 °F 31.0 °F 30.0 °F 82% 29.78 in 5.0 mi East 4.6 mph - N/A Snow Light Snow
8:52 AM 35.1 °F 29.3 °F 28.9 °F 78% 29.78 in 7.0 mi East 6.9 mph - N/A Snow Light Snow
9:52 AM 37.0 °F 32.4 °F 28.0 °F 70% 29.80 in 10.0 mi East 5.8 mph - N/A   Overcast
10:52 AM 39.0 °F 34.0 °F 28.0 °F 65% 29.80 in 10.0 mi East 6.9 mph - N/A   Mostly Cloudy
11:52 AM 42.1 °F 36.6 °F 28.9 °F 60% 29.80 in 10.0 mi ESE 9.2 mph - N/A   Overcast
12:52 PM 42.1 °F 36.6 °F 28.0 °F 58% 29.80 in 10.0 mi ESE 9.2 mph 17.3 mph N/A   Mostly Cloudy
1:52 PM 43.0 °F 37.7 °F 28.9 °F 58% 29.79 in 10.0 mi ESE 9.2 mph - N/A   Mostly Cloudy
2:52 PM 44.1 °F 38.1 °F 28.9 °F 55% 29.79 in 10.0 mi ESE 11.5 mph - N/A   Overcast
3:52 PM 45.0 °F 40.1 °F 28.0 °F 52% 29.79 in 10.0 mi East 9.2 mph - N/A   Overcast
4:52 PM 46.0 °F 41.0 °F 28.9 °F 51% 29.78 in 10.0 mi East 10.4 mph - N/A   Overcast
5:52 PM 46.0 °F 39.6 °F 28.9 °F 51% 29.76 in 10.0 mi ESE 15.0 mph - N/A   Mostly Cloudy
6:52 PM 45.0 °F 38.9 °F 28.0 °F 52% 29.75 in 10.0 mi ESE 12.7 mph - N/A   Scattered Clouds
7:52 PM 42.1 °F 34.5 °F 28.0 °F 58% 29.74 in 10.0 mi ESE 15.0 mph - N/A   Scattered Clouds
8:52 PM 39.9 °F 32.1 °F 27.0 °F 60% 29.74 in 10.0 mi ESE 13.8 mph - N/A   Scattered Clouds
9:52 PM 37.9 °F 30.0 °F 26.1 °F 62% 29.75 in 10.0 mi East 12.7 mph - N/A   Clear
10:52 PM 36.0 °F 29.6 °F 26.1 °F 67% 29.75 in 10.0 mi East 8.1 mph - N/A   Overcast
11:52 PM 35.1 °F 27.9 °F 26.1 °F 70% 29.76 in 10.0 mi East 9.2 mph - N/A   Overcast